Wetbulb
65.75 66.45 66.79 67.03 66.41 66.73 66.12 65.69 65.68 65.86 65.74 65.59 65.46 65.79 65.24 65.91 67.10 66.49 65.67 65.18 64.02 65.16 65.19 64.73 64.71 65.64 65.01 64.90 66.50 64.68 62.39 62.00 58.68 59.85 61.27 61.68 60.74 61.50 62.30 62.81 62.90 62.03 61.67
65.55 65.77 66.38 66.47 66.33 66.59 65.66 66.39 66.47 65.97 65.69 65.42 65.28 65.11 64.89 65.72 66.32 64.17 64.31 64.64 63.58 62.98 63.80 64.02 64.49 64.74 64.68 64.57 65.13 64.74 63.76 62.15 60.02 57.95 60.16 60.57 60.94 61.68 61.78 61.14 61.26 61.53 61.36
64.75 65.16 66.68 65.92 66.53 65.76 65.75 66.13 65.77 65.59 65.58 65.44 65.39 65.23 63.74 65.01 64.19 64.02 63.88 63.33 63.42 64.25 63.59 63.11 64.19 64.87 62.02 62.26 63.27 65.30 63.96 62.18 62.20 59.91 58.80 60.62 60.73 61.20 60.36 61.00 60.80 60.75 60.40
63.85 65.19 66.04 65.60 65.65 65.95 66.36 66.28 65.47 65.85 65.27 65.16 65.17 64.42 63.41 63.08 63.17 62.97 63.38 63.49 63.34 65.08 64.10 64.65 64.19 63.54 61.48 62.03 63.20 63.46 63.68 62.61 61.09 60.30 59.12 58.94 59.52 60.14 60.07 58.07 57.87 59.07 59.11
63.52 64.62 65.67 66.04 66.20 66.31 66.04 66.14 66.18 66.15 65.88 65.43 64.72 63.76 63.39 63.05 62.60 63.10 63.10 63.21 62.72 64.19 65.53 64.67 64.81 62.44 60.15 61.36 63.78 64.63 62.85 60.61 60.32 59.05 58.13 58.24 57.92 57.87 57.55 59.19 59.04 59.41 60.63
63.33 64.22 65.26 65.80 65.67 65.68 65.85 65.90 65.97 65.56 65.74 65.61 65.47 64.60 63.64 62.14 51.27 54.05 59.62 63.77 63.78 64.05 64.64 64.90 64.18 61.29 58.06 53.87 55.25 56.33 60.20 60.62 59.37 58.63 58.01 57.19 58.30 58.35 58.79 57.93 59.86 59.40 57.46
63.07 64.01 65.05 65.36 65.03 65.17 65.63 65.47 65.70 65.68 66.16 65.18 64.57 64.42 62.52 62.96 49.90 50.91 53.32 64.58 64.37 64.43 64.64 62.67 62.17 63.61 61.86 60.80 53.32 53.31 53.19 52.95 56.95 60.37 58.83 59.11 58.03 58.86 58.52 60.20 61.11 61.17 60.06
62.57 63.38 65.07 64.77 65.06 65.28 65.69 65.74 65.88 66.33 65.40 64.35 62.81 63.74 63.18 61.49 48.69 48.89 52.68 64.12 64.54 65.47 64.07 65.68 64.68 64.18 60.96 62.50 61.90 59.81 58.20 59.18 60.81 61.46 60.87 60.91 61.32 62.42 63.19 64.43 64.26 63.87 62.23
61.99 62.81 64.80 64.96 64.96 64.94 64.55 65.97 66.37 65.43 61.26 62.43 62.79 62.26 62.52 60.53 46.17 48.35 55.69 64.27 64.71 64.71 65.48 64.64 64.60 64.39 49.14 51.64 60.81 58.12 57.11 54.16 49.63 50.53 51.96 52.70 50.53 52.63 58.95 63.23 60.62 59.94 58.74
62.10 62.56 65.08 65.14 65.00 64.30 64.34 65.79 66.69 66.68 65.17 63.93 62.54 60.22 55.00 57.67 45.09 47.08 57.50 62.17 61.85 62.45 63.95 64.09 50.97 57.25 46.70 50.49 61.48 62.20 58.23 57.05 57.64 59.98 58.89 53.70 57.21 56.49 53.49 66.22 63.45 60.87 60.53
63.04 63.03 64.56 65.77 65.12 65.54 64.79 66.17 66.73 66.19 65.83 64.49 62.99 63.12 62.81 59.91 54.29 47.08 51.61 61.68 62.24 61.28 62.21 62.22 57.96 44.71 45.83 49.19 53.66 64.19 59.79 60.49 57.75 63.16 62.72 62.83 62.26 62.57 64.00 66.18 66.27 64.20 59.99
63.22 62.93 63.47 65.64 65.37 65.63 65.28 65.53 66.27 66.28 65.26 64.50 64.05 63.76 62.13 63.05 54.15 47.97 46.36 53.17 56.56 62.15 61.48 62.35 58.44 43.42 44.84 47.37 54.09 44.98 46.90 54.56 62.48 61.59 61.62 61.61 61.74 61.93 61.95 62.18 62.74 62.26 61.98
62.84 63.05 63.34 65.01 65.12 65.83 65.22 64.02 64.82 65.83 64.90 64.37 64.08 63.59 63.24 64.26 63.48 46.38 45.63 48.17 50.41 63.88 64.80 56.71 44.46 42.73 44.39 45.69 42.57 44.66 45.54 63.02 62.51 61.65 61.09 61.31 61.19 60.55 60.47 59.63 59.47 58.13 57.34
62.55 63.11 63.41 63.62 64.68 64.85 64.51 63.69 62.95 63.93 63.95 62.91 62.72 63.42 63.89 64.15 63.75 63.99 63.05 62.51 51.56 60.02 52.34 59.47 56.02 52.34 44.46 52.50 52.96 53.92 64.00 64.09 63.12 61.73 59.94 59.94 59.35 58.42 58.23 58.52 56.71 55.86 53.54
62.93 63.11 63.19 63.29 63.92 64.50 64.21 63.22 62.17 63.87 61.16 62.57 62.36 62.09 63.33 63.59 63.96 59.30 60.47 64.28 64.96 60.35 61.43 62.10 62.60 63.34 62.92 62.66 61.46 61.84 62.72 62.34 61.77 61.77 60.27 58.78 58.58 58.48 57.80 58.21 57.17 55.18 53.00
62.75 63.01 62.83 62.19 62.99 63.60 64.16 63.44 43.54 48.59 48.76 46.93 48.49 55.94 61.49 51.08 47.13 47.06 48.25 45.69 44.40 46.60 61.76 62.56 62.25 62.34 61.96 62.14 62.22 62.04 62.58 59.09 61.91 61.55 60.22 58.97 58.09 57.67 56.90 56.80 56.73 56.56 54.30
64.21 64.25 62.81 59.87 62.01 61.85 62.90 63.47 61.94 55.29 46.44 44.08 44.52 45.41 45.72 49.08 43.95 43.09 41.89 40.30 40.61 45.93 63.06 61.37 60.34 60.65 61.24 61.47 61.67 61.75 61.73 62.30 62.57 61.01 60.20 59.21 58.64 58.10 55.43 56.27 56.42 56.10 53.75
64.65 52.35 63.27 62.00 61.84 61.56 61.77 62.76 63.22 62.25 60.55 60.24 45.97 49.86 43.41 41.15 39.56 39.99 39.42 44.64 55.48 53.25 60.66 60.35 60.15 60.42 59.39 59.30 60.28 60.82 61.33 61.83 61.47 61.02 60.25 59.88 59.11 58.08 56.28 56.27 55.87 54.69 53.07
64.19 62.88 63.04 62.66 62.23 60.00 62.00 61.79 61.57 61.57 61.57 61.26 61.71 48.52 45.86 39.78 38.16 37.72 39.71 60.90 60.17 59.92 60.56 60.77 61.63 61.49 61.36 60.85 60.43 60.32 60.90 61.02 60.94 60.84 60.45 60.10 59.69 58.73 57.04 56.75 55.90 44.96 46.96
64.83 55.14 57.57 62.80 61.89 61.41 61.55 61.24 60.86 60.87 60.86 60.75 60.89 61.37 60.90 52.22 56.96 56.09 54.32 58.25 59.84 59.22 59.06 58.93 59.75 60.93 61.45 61.49 61.20 61.11 60.63 60.21 60.75 60.69 60.54 60.39 59.90 59.25 57.77 56.79 56.19 53.03 50.83
64.85 63.75 54.92 62.67 62.22 61.59 60.98 61.16 61.08 60.60 60.56 60.72 60.93 60.28 48.64 60.43 60.47 60.45 60.34 60.65 61.40 61.46 61.36 60.73 59.78 59.00 59.40 60.42 60.91 60.29 60.04 60.22 60.59 60.41 60.38 60.36 60.04 58.46 58.26 57.51 56.42 53.45 51.07
64.80 64.24 62.09 62.31 62.69 61.93 61.19 60.95 61.37 61.15 60.89 60.86 61.25 59.69 40.32 61.34 60.66 60.59 61.16 61.26 61.54 62.45 62.86 62.58 61.64 60.78 59.93 59.01 58.77 59.33 59.35 59.25 59.57 59.89 59.72 59.91 59.42 58.55 57.71 56.93 55.39 51.95 48.94
64.48 64.12 62.39 62.63 62.91 56.19 61.00 61.55 60.95 61.19 61.18 61.38 61.52 61.29 59.80 61.50 61.31 60.95 61.23 62.23 62.64 62.40 62.65 62.59 62.49 62.07 61.85 61.21 60.94 59.15 58.01 58.39 59.45 60.12 59.15 58.68 58.14 57.49 56.85 55.59 54.15 51.03 46.63
64.23 63.84 63.06 62.41 62.47 62.66 62.36 61.87 61.94 54.28 60.89 61.16 61.44 61.38 61.67 62.04 62.20 62.09 62.45 63.14 63.55 63.57 63.53 62.89 62.47 62.12 62.22 62.20 61.88 61.65 60.72 60.01 59.49 59.23 59.87 58.81 57.79 54.04 55.79 53.63 52.70 49.09 45.60
64.02 63.63 63.36 62.83 62.50 62.27 62.61 62.60 62.78 62.67 61.98 61.85 61.62 61.79 61.95 62.25 62.55 62.44 62.91 63.05 63.49 63.84 63.71 63.67 63.34 62.89 62.62 62.45 62.39 62.40 56.03 40.30 56.79 52.32 60.14 59.26 57.74 56.84 54.97 53.13 50.82 48.09 41.01
63.33 63.66 63.44 63.24 62.89 62.67 62.36 62.43 62.54 63.09 63.04 63.09 62.93 63.19 63.07 62.80 62.93 62.86 62.94 63.34 63.29 63.54 63.91 63.84 63.61 63.43 63.01 62.69 62.52 54.81 39.70 38.65 49.91 38.87 58.28 58.47 56.92 55.24 53.24 50.99 45.87 42.78 43.04
MSLP
1005.19 1005.47 1005.70 1005.93 1006.18 1006.38 1006.68 1006.87 1006.86 1007.12 1007.32 1007.42 1007.43 1007.60 1007.88 1008.11 1008.22 1008.43 1008.35 1008.39 1008.82 1008.98 1009.29 1009.32 1009.51 1009.45 1009.61 1009.90 1010.43 1010.70 1011.17 1011.50 1012.33 1013.20 1013.77 1014.67 1015.53 1016.52 1017.65 1018.27 1018.98 1019.67 1020.38
1004.94 1005.27 1005.57 1005.91 1006.08 1006.38 1006.56 1006.60 1006.88 1006.96 1007.17 1007.29 1007.49 1007.74 1008.24 1008.34 1008.42 1008.70 1008.65 1008.57 1009.11 1009.43 1009.54 1009.53 1009.50 1009.70 1010.12 1010.47 1010.53 1011.04 1011.54 1011.75 1012.58 1013.17 1013.97 1015.31 1016.23 1017.12 1017.87 1018.71 1019.51 1020.39 1020.95
1004.68 1005.09 1005.56 1005.90 1006.08 1006.38 1006.54 1006.80 1006.92 1006.96 1007.11 1007.30 1007.45 1007.86 1008.62 1008.57 1008.75 1008.91 1008.96 1009.12 1009.34 1009.64 1009.84 1009.90 1009.86 1009.95 1010.75 1011.08 1011.13 1011.38 1012.02 1012.40 1013.33 1013.78 1014.82 1015.78 1016.74 1017.63 1018.35 1019.25 1019.96 1020.75 1021.08
1004.49 1004.89 1005.45 1005.88 1006.12 1006.31 1006.49 1006.74 1006.94 1007.04 1007.15 1007.48 1007.61 1008.38 1008.89 1009.14 1009.21 1009.30 1009.25 1009.48 1009.67 1009.56 1010.00 1010.07 1010.16 1010.57 1011.07 1011.49 1011.48 1011.83 1012.41 1012.98 1013.86 1014.52 1015.36 1016.41 1017.29 1018.28 1018.77 1019.49 1020.45 1021.09 1021.29
1004.38 1004.82 1005.40 1005.97 1006.13 1006.27 1006.38 1006.60 1006.93 1007.14 1007.29 1007.61 1008.20 1008.90 1009.21 1009.44 1009.57 1009.66 1009.77 1009.85 1010.04 1009.94 1009.99 1010.22 1010.64 1011.01 1011.39 1011.71 1011.95 1012.16 1012.85 1013.43 1014.13 1015.08 1015.85 1016.81 1017.63 1018.36 1019.02 1019.86 1020.17 1020.69 1021.59
1004.35 1004.71 1005.34 1005.73 1006.05 1006.39 1006.47 1006.65 1006.96 1007.29 1007.45 1007.70 1008.06 1008.76 1009.44 1009.82 1010.28 1010.31 1010.10 1009.89 1010.17 1010.18 1010.29 1010.78 1011.33 1011.71 1012.12 1012.38 1012.62 1013.07 1013.38 1013.76 1014.40 1015.34 1016.24 1017.06 1017.88 1018.58 1019.35 1019.76 1019.91 1020.43 1021.03
1004.32 1004.76 1005.28 1005.73 1005.99 1006.40 1006.43 1006.57 1007.02 1007.47 1007.80 1008.02 1008.54 1009.13 1009.79 1010.31 1010.80 1010.81 1010.67 1010.28 1010.40 1010.51 1010.92 1011.55 1011.96 1012.26 1012.58 1013.08 1013.41 1013.83 1014.23 1014.66 1015.01 1015.45 1016.27 1017.19 1017.96 1018.74 1019.18 1019.43 1019.60 1019.68 1020.07
1004.09 1004.59 1005.07 1005.49 1005.91 1006.34 1006.47 1006.74 1007.21 1007.73 1008.24 1008.75 1009.21 1009.57 1010.09 1010.78 1011.34 1011.35 1011.13 1010.74 1010.85 1010.75 1011.42 1011.49 1011.93 1012.28 1013.12 1013.23 1013.86 1014.43 1015.06 1015.56 1015.98 1016.22 1016.63 1017.47 1018.08 1018.74 1018.75 1018.69 1018.99 1019.66 1020.62
1003.70 1004.35 1004.86 1005.35 1005.92 1006.37 1006.69 1007.06 1007.38 1007.98 1008.82 1009.28 1009.62 1010.14 1010.54 1011.32 1011.65 1011.70 1011.49 1010.91 1010.94 1011.20 1011.53 1012.08 1012.17 1012.67 1013.62 1013.79 1014.17 1014.83 1015.59 1016.50 1016.82 1017.00 1017.46 1017.95 1018.58 1018.70 1018.36 1018.87 1019.31 1019.48 1020.00
1003.30 1004.01 1004.64 1005.17 1005.88 1006.37 1006.96 1007.27 1007.48 1007.71 1008.39 1009.12 1009.87 1010.53 1010.93 1011.44 1011.79 1011.88 1011.61 1011.74 1011.76 1011.96 1012.22 1012.73 1013.16 1013.88 1014.38 1014.51 1014.61 1014.90 1015.63 1016.48 1016.95 1017.64 1018.48 1018.90 1018.55 1018.86 1018.92 1018.42 1018.52 1018.40 1019.06
1003.04 1003.78 1004.52 1005.10 1005.79 1006.43 1007.11 1007.49 1007.56 1007.64 1008.17 1009.07 1009.83 1010.44 1010.96 1011.50 1011.93 1012.05 1012.15 1012.23 1012.14 1012.47 1012.67 1013.29 1014.39 1014.53 1014.77 1014.90 1014.97 1015.08 1015.43 1016.02 1016.55 1017.04 1017.66 1018.12 1018.37 1018.71 1018.64 1018.55 1018.33 1017.94 1018.96
1002.77 1003.50 1004.29 1005.12 1005.52 1006.33 1007.06 1007.46 1007.63 1007.91 1008.29 1008.91 1009.56 1010.14 1011.01 1011.48 1012.00 1012.27 1012.44 1012.57 1012.52 1012.64 1013.12 1013.62 1014.60 1014.92 1015.14 1015.16 1015.06 1015.34 1015.78 1015.79 1015.93 1016.29 1016.65 1017.21 1017.69 1018.25 1019.01 1019.24 1019.61 1019.53 1019.72
1002.45 1003.28 1004.15 1004.96 1005.43 1006.11 1006.81 1007.35 1007.55 1007.95 1008.08 1008.43 1008.73 1009.24 1010.17 1010.77 1011.69 1012.51 1012.60 1012.69 1012.82 1012.88 1012.89 1013.70 1014.76 1015.22 1015.42 1015.68 1015.84 1015.92 1015.91 1015.56 1015.74 1016.02 1016.49 1017.09 1017.82 1018.61 1019.45 1019.80 1020.44 1020.82 1020.93
1002.19 1003.06 1003.96 1004.69 1005.28 1005.92 1006.45 1007.05 1007.08 1007.43 1007.62 1007.85 1008.14 1008.66 1009.51 1010.32 1011.10 1011.97 1012.66 1012.88 1013.07 1013.28 1013.64 1014.34 1014.85 1014.96 1015.31 1015.50 1016.12 1016.06 1015.18 1015.21 1015.31 1015.62 1016.27 1017.08 1018.19 1018.83 1018.95 1019.28 1019.79 1020.38 1020.97
1001.95 1002.72 1003.55 1004.29 1005.15 1005.61 1005.92 1006.42 1006.71 1007.19 1007.41 1007.80 1008.03 1008.47 1009.21 1009.75 1010.43 1011.14 1011.81 1012.09 1012.36 1012.75 1013.41 1014.18 1014.32 1014.24 1014.41 1014.74 1015.12 1015.22 1015.05 1015.49 1015.35 1015.60 1016.30 1017.09 1017.51 1017.94 1018.47 1019.04 1019.40 1019.93 1020.35
1001.40 1002.15 1002.84 1003.40 1004.52 1004.95 1005.59 1006.57 1007.51 1007.68 1007.90 1008.31 1008.45 1008.64 1009.20 1009.64 1010.72 1011.59 1012.06 1012.30 1012.58 1013.09 1013.02 1013.01 1013.14 1013.30 1013.46 1013.76 1014.06 1014.47 1014.71 1015.24 1015.08 1015.50 1016.10 1016.49 1016.83 1017.40 1018.16 1018.76 1019.08 1019.28 1019.75
1000.48 1001.26 1001.99 1002.68 1003.43 1004.04 1004.82 1005.59 1006.65 1008.40 1008.62 1008.94 1009.10 1009.35 1009.92 1010.35 1011.06 1011.88 1012.45 1012.79 1013.07 1013.26 1012.45 1012.30 1012.34 1012.58 1012.73 1013.01 1013.37 1013.68 1014.02 1014.55 1014.94 1015.34 1015.69 1016.09 1016.47 1016.92 1018.08 1018.22 1018.53 1018.88 1019.47
1000.00 1000.56 1001.20 1001.96 1002.41 1003.11 1003.88 1004.65 1005.33 1006.22 1007.48 1008.47 1009.42 1009.56 1010.16 1010.68 1011.32 1011.98 1012.52 1012.98 1013.38 1013.37 1011.95 1011.42 1011.54 1011.81 1012.11 1012.34 1012.63 1012.86 1013.21 1013.77 1014.46 1014.81 1015.09 1015.57 1016.04 1016.40 1017.15 1017.31 1017.80 1018.37 1019.03
999.20 999.93 1000.56 1001.25 1001.65 1002.27 1002.93 1003.65 1004.23 1004.76 1005.53 1006.52 1007.54 1009.61 1010.32 1011.08 1011.55 1012.02 1012.16 1011.48 1011.41 1011.58 1011.45 1010.97 1010.89 1011.09 1011.39 1011.63 1011.97 1012.26 1012.58 1012.92 1013.64 1014.19 1014.45 1014.90 1015.34 1015.64 1016.20 1016.54 1017.00 1017.79 1018.52
998.39 998.91 999.85 1000.37 1000.91 1001.78 1002.20 1002.69 1003.14 1003.68 1004.35 1005.00 1005.86 1007.24 1008.72 1010.54 1010.97 1011.38 1011.39 1010.82 1010.14 1010.01 1010.05 1010.08 1010.15 1010.46 1010.67 1011.04 1011.27 1011.63 1011.97 1012.56 1013.04 1013.51 1013.73 1014.11 1014.57 1015.03 1015.36 1015.90 1016.62 1017.76 1018.67
997.17 998.29 999.29 999.55 1000.02 1000.81 1001.39 1001.87 1002.27 1002.74 1003.25 1003.97 1004.84 1005.98 1006.48 1008.45 1008.62 1008.86 1009.11 1009.12 1008.92 1008.43 1008.26 1008.43 1008.75 1009.19 1009.73 1010.01 1010.37 1010.72 1011.09 1011.50 1012.14 1012.59 1012.90 1013.30 1013.82 1014.25 1014.66 1015.01 1015.74 1017.01 1018.28
996.04 996.91 998.39 998.51 999.18 999.84 1000.37 1000.99 1001.53 1001.89 1002.33 1002.95 1003.89 1005.26 1006.44 1007.05 1006.83 1006.76 1006.92 1007.24 1007.61 1007.67 1007.58 1007.75 1007.87 1008.04 1008.34 1008.79 1009.16 1009.54 1009.80 1010.23 1010.82 1011.50 1012.03 1012.56 1013.18 1013.66 1014.03 1014.42 1015.37 1016.74 1017.80
995.38 995.96 997.19 997.51 998.01 998.87 999.80 1000.07 1000.48 1000.92 1001.33 1001.92 1002.63 1003.56 1005.23 1005.25 1005.22 1004.93 1005.07 1005.44 1005.99 1006.52 1006.78 1006.95 1007.10 1007.21 1007.38 1007.57 1008.04 1008.53 1008.86 1009.19 1009.66 1010.30 1010.86 1011.14 1011.59 1012.53 1013.24 1013.82 1014.54 1016.12 1018.00
994.83 995.35 996.04 996.73 997.01 997.58 998.35 999.01 999.36 999.98 1000.26 1000.77 1001.35 1001.99 1002.53 1003.42 1003.79 1003.89 1003.86 1004.26 1004.72 1005.11 1005.57 1005.88 1006.05 1006.17 1006.47 1006.79 1007.12 1007.58 1007.74 1007.98 1008.29 1008.65 1009.54 1010.26 1011.03 1012.07 1012.77 1013.61 1014.47 1016.09 1018.23
994.17 994.82 995.30 995.94 996.22 996.83 997.34 997.99 998.52 998.77 999.46 999.93 1000.13 1000.57 1001.03 1001.50 1002.34 1002.71 1002.85 1003.08 1003.53 1004.07 1004.43 1004.76 1005.11 1005.35 1005.60 1005.88 1006.07 1006.36 1006.67 1007.42 1007.76 1008.04 1008.81 1009.72 1010.22 1010.74 1011.81 1013.10 1014.45 1016.15 1018.47
993.79 994.39 994.94 995.23 995.78 996.28 996.86 997.36 997.88 998.45 998.67 998.86 999.49 999.62 999.83 1000.18 1000.58 1001.36 1001.84 1002.05 1002.25 1002.65 1003.18 1003.59 1003.98 1004.31 1004.56 1004.87 1005.13 1005.52 1006.39 1007.09 1007.50 1008.05 1007.89 1008.86 1009.87 1010.84 1011.97 1013.41 1014.91 1016.26 1017.55
Wind_Speed
8 7 6 4 4 4 3 4 5 7 7 6 5 4 4 4 2 1 2 4 4 5 5 5 5 5 6 6 5 5 6 4 6 5 10 14 18 16 12 11 10 9 8
8 7 6 5 4 3 4 6 6 7 7 7 6 5 4 2 3 4 5 4 5 5 4 5 7 7 8 5 5 7 8 8 9 14 13 14 13 14 12 12 9 7 5
8 7 6 5 3 4 4 6 5 7 7 6 6 6 3 3 4 4 5 6 6 7 6 5 7 8 7 4 3 8 9 8 11 10 11 11 10 10 11 10 8 6 6
7 7 7 5 4 5 5 7 7 7 7 7 6 7 5 5 4 5 5 6 5 7 7 7 8 9 7 6 6 8 10 10 11 10 11 11 9 8 8 10 8 5 7
8 7 6 6 6 6 6 7 7 7 7 8 9 8 6 5 4 5 6 7 6 6 7 7 7 8 10 6 5 10 11 8 9 11 9 9 9 9 9 6 9 10 7
8 8 7 7 7 7 7 7 8 8 8 8 9 8 7 4 6 5 4 7 7 7 8 9 11 12 11 11 12 11 8 11 10 9 10 10 10 9 8 8 10 10 7
9 8 8 8 8 8 8 8 9 8 7 7 8 8 6 9 5 3 1 6 8 7 10 8 8 8 11 12 15 15 14 13 9 11 12 9 11 10 11 10 11 10 10
10 9 9 8 9 8 8 9 8 8 7 6 4 8 8 7 6 3 4 6 7 8 9 10 10 12 11 10 14 12 10 10 10 7 9 9 9 11 11 8 8 9 10
11 11 10 9 9 8 8 9 9 9 6 6 7 8 9 7 3 5 5 6 9 8 9 7 11 13 10 10 15 11 11 8 10 14 12 8 9 11 9 9 9 11 10
13 12 11 10 10 8 8 8 8 8 10 8 9 8 8 5 4 5 2 6 5 7 8 10 16 11 10 10 9 12 10 9 10 13 10 9 10 7 2 9 10 9 8
13 12 12 11 10 9 8 7 9 8 10 10 9 9 9 7 4 6 8 5 8 6 8 10 7 8 9 6 5 8 10 12 10 12 12 10 10 9 6 4 3 3 8
14 14 13 12 10 9 9 8 8 9 9 10 10 9 7 7 7 5 2 8 8 10 9 9 7 8 9 7 1 11 11 12 11 10 10 10 9 8 6 5 6 8 8
16 14 13 13 11 11 10 9 8 9 8 9 8 9 9 8 7 7 4 8 3 10 9 11 14 8 9 10 8 10 10 8 9 9 9 8 7 7 9 9 10 11 11
16 16 13 13 12 12 9 9 8 8 8 8 8 8 9 9 9 9 9 7 9 10 11 9 7 6 7 11 8 6 7 8 8 8 8 8 8 9 8 8 8 8 8
16 15 14 12 12 12 10 9 9 8 6 7 7 8 9 9 10 10 11 10 9 10 10 8 8 8 8 8 8 7 7 6 7 7 9 9 8 8 8 8 7 8 7
17 14 13 12 12 11 11 8 9 7 7 6 5 1 7 6 15 11 6 9 13 15 9 9 9 9 10 10 9 9 8 8 8 8 8 9 9 9 9 8 8 7 7
17 15 13 13 13 12 12 11 11 3 6 2 1 2 8 13 13 12 10 9 7 9 9 9 8 9 9 10 10 10 10 9 9 8 9 9 9 9 9 8 9 7 7
19 16 14 14 13 13 12 12 11 11 11 10 6 7 6 10 12 12 13 12 6 6 9 9 9 9 9 10 10 10 10 9 9 9 9 9 9 10 10 10 9 9 9
18 15 15 13 13 13 12 12 12 12 12 12 12 7 9 10 10 10 14 10 10 10 10 9 8 9 9 10 10 10 10 10 10 10 10 10 11 11 11 10 10 10 10
18 17 16 13 13 13 12 12 12 12 11 11 12 12 13 9 10 11 10 11 11 11 12 12 11 10 10 11 10 10 11 10 11 11 11 11 11 11 11 11 10 10 11
15 15 15 13 13 13 13 13 12 12 12 12 12 12 14 13 13 14 13 13 14 13 13 13 12 12 12 11 11 11 12 12 12 12 12 11 11 12 12 11 12 12 12
16 15 17 16 14 14 14 13 13 13 13 13 12 11 17 13 13 13 15 14 15 15 13 13 12 12 13 13 13 13 13 14 13 13 12 12 12 12 12 12 12 11 12
15 16 16 16 16 14 13 14 14 14 14 14 13 13 12 14 14 14 14 14 13 13 14 14 13 13 13 13 13 13 14 13 13 13 14 14 14 11 13 12 13 14 14
14 16 15 15 15 16 15 16 15 14 15 15 14 14 13 14 14 16 14 13 13 14 13 13 14 17 15 14 13 13 14 13 12 13 17 14 13 13 14 12 13 15 13
14 14 14 14 15 15 15 14 15 15 15 14 14 14 14 14 14 15 15 14 14 14 15 14 13 18 21 22 19 20 16 11 14 10 11 15 17 18 17 13 14 14 16
14 13 13 12 13 13 13 12 12 12 13 13 14 14 15 15 15 14 14 15 14 15 16 13 15 21 21 20 23 20 8 10 11 9 14 12 13 13 14 15 20 14 20
Wind_Direction
163 159 155 145 125 167 146 153 152 159 164 166 164 129 113 117 134 152 166 136 128 166 159 174 149 151 116 126 125 121 115 109 107 117 126 118 121 126 123 119 115 108 106
160 161 148 141 140 155 148 135 166 163 168 164 163 138 118 158 131 138 157 144 138 119 126 157 163 150 127 141 140 145 131 104 122 116 126 122 125 120 121 112 107 106 112
163 161 144 149 139 128 136 131 170 157 160 162 166 116 138 152 129 139 134 118 139 130 159 140 139 155 112 113 146 143 131 126 129 123 120 112 111 119 114 110 110 100 115
163 166 135 139 131 137 128 119 149 146 150 151 143 105 131 118 113 136 116 113 119 133 140 150 139 133 140 121 128 127 130 127 129 131 118 121 123 116 112 117 113 122 123
162 158 136 139 142 139 122 124 128 139 142 130 122 126 128 124 116 121 122 120 125 123 112 103 86 85 108 127 128 128 127 132 124 132 126 120 123 128 131 126 125 129 135
161 152 149 144 154 136 134 134 133 131 139 140 134 125 121 115 82 70 112 124 123 114 107 95 100 104 85 75 84 82 112 130 121 127 129 134 131 122 126 138 133 138 127
165 147 156 147 153 148 144 136 129 128 135 130 123 118 124 124 115 104 50 121 121 131 105 114 108 114 121 106 88 86 79 80 101 130 129 129 122 138 144 165 154 164 138
168 157 156 162 149 146 144 133 134 132 124 124 83 127 132 122 137 163 283 147 123 124 126 131 136 122 113 126 113 95 79 87 107 120 120 124 131 146 170 152 148 99 113
169 163 164 156 154 150 144 144 141 120 124 134 138 140 136 140 175 199 251 148 135 120 123 110 116 102 108 102 118 100 94 84 69 93 101 115 154 169 163 133 145 150 155
172 168 167 159 152 152 141 144 152 140 118 129 138 133 130 146 185 186 185 117 121 119 111 100 69 95 99 114 115 121 114 124 126 127 126 122 118 100 144 195 180 167 159
172 168 167 163 159 144 143 147 155 157 120 127 123 142 142 140 138 147 129 135 131 124 120 118 116 106 98 100 151 128 127 135 134 138 144 143 143 153 158 167 224 160 170
173 173 168 165 174 155 152 152 158 148 145 136 139 137 138 149 132 134 161 163 172 128 139 139 128 102 84 49 41 108 130 153 141 144 145 148 152 147 130 112 73 56 47
174 175 171 171 179 162 163 162 160 169 159 159 162 140 142 148 142 107 143 141 150 151 158 123 119 120 115 88 102 132 174 149 146 148 147 148 147 121 127 123 113 106 90
176 175 175 178 178 173 175 174 171 178 171 173 162 152 147 149 147 155 154 152 133 114 124 124 133 121 47 99 145 189 174 162 162 150 150 133 133 159 159 148 144 142 126
179 178 178 183 186 178 195 182 184 186 183 179 165 161 162 169 161 158 166 169 172 141 139 153 171 179 171 163 163 180 155 158 175 156 152 161 164 164 160 165 159 161 159
181 181 182 183 179 187 191 175 56 27 120 58 29 131 141 111 125 142 136 105 114 147 185 178 181 182 183 181 179 182 185 188 185 171 170 178 174 177 171 177 181 192 171
185 181 182 195 179 188 192 191 188 130 61 67 9 290 35 144 144 145 137 114 129 161 211 189 189 191 195 190 194 195 196 192 190 190 186 189 185 190 173 184 191 186 174
188 174 188 196 185 189 191 194 198 190 194 190 210 215 156 143 145 142 140 143 156 221 229 201 203 199 204 203 205 205 204 190 200 202 198 195 194 193 190 193 191 187 179
187 181 195 191 191 194 188 194 200 200 195 196 184 177 120 104 136 149 175 204 198 204 213 228 214 211 208 211 209 212 210 207 199 204 202 200 199 201 196 202 194 188 176
192 186 190 187 190 194 197 196 197 201 200 204 197 190 171 160 180 179 197 216 221 214 211 217 218 218 215 216 214 214 209 205 197 209 208 205 204 207 205 204 198 182 187
186 181 191 193 196 192 199 201 201 199 200 203 207 200 170 195 203 204 197 209 216 220 217 214 213 212 214 215 214 211 213 210 211 212 212 211 206 205 211 201 197 184 186
187 183 187 198 193 194 200 201 206 207 207 206 206 192 156 195 212 210 211 209 218 224 225 221 221 218 213 212 213 214 214 213 212 212 215 214 209 210 210 205 195 187 176
191 190 187 198 197 193 192 203 205 210 211 212 212 206 183 205 218 220 214 216 212 219 224 228 227 226 224 218 214 217 220 218 215 209 211 212 209 205 208 201 189 184 180
199 201 192 202 200 194 198 203 206 209 211 213 212 217 203 203 214 221 225 217 218 218 220 223 226 227 225 224 216 220 219 223 222 216 212 216 209 193 206 186 192 175 173
209 201 202 203 205 205 198 205 210 212 210 221 215 214 218 214 209 219 221 221 218 220 221 221 222 225 227 228 222 220 218 190 220 215 204 215 214 203 201 180 177 162 151
220 199 209 203 206 199 208 200 212 219 232 215 227 224 218 218 216 213 216 218 218 219 219 218 223 225 222 224 229 227 182 179 186 194 203 203 204 193 185 179 160 162 162